owner,sensor,date,latitude,longitude,vertical_datum,sea_water_practical_salinity,qcFlag 
DISL,ioos:station:DISL:DISL:1,2016-11-01T00:00:00Z,30.2513,-88.0778,2.364,28.03,1111122 
DISL,ioos:station:DISL:DISL:1,2016-11-01T00:30:00Z,30.2513,-88.0778,2.368,28.72,1111122 
DISL,ioos:station:DISL:DISL:1,2016-11-01T01:00:00Z,30.2513,-88.0778,2.379,27.56,1111122 
DISL,ioos:station:DISL:DISL:1,2016-11-01T01:30:00Z,30.2513,-88.0778,2.411,28.34,1111122 
DISL,ioos:station:DISL:DISL:1,2016-11-01T02:00:00Z,30.2513,-88.0778,2.439,27.32,1111122 
DISL,ioos:station:DISL:DISL:1,2016-11-01T02:30:00Z,30.2513,-88.0778,2.455,27.14,1111122 
DISL,ioos:station:DISL:DISL:1,2016-11-01T03:00:00Z,30.2513,-88.0778,2.435,24.35,1111122 
DISL,ioos:station:DISL:DISL:1,2016-11-01T03:30:00Z,30.2513,-88.0778,2.458,25.46,1111122 
DISL,ioos:station:DISL:DISL:1,2016-11-01T04:00:00Z,30.2513,-88.0778,2.468,25.27,1111122 
DISL,ioos:station:DISL:DISL:1,2016-11-01T04:30:00Z,30.2513,-88.0778,2.465,25.64,1111122 
DISL,ioos:station:DISL:DISL:1,2016-11-01T05:30:00Z,30.2513,-88.0778,2.434,24.38,1111122 
DISL,ioos:station:DISL:DISL:1,2016-11-01T06:00:00Z,30.2513,-88.0778,2.418,24.75,1111122 
DISL,ioos:station:DISL:DISL:1,2016-11-01T06:30:00Z,30.2513,-88.0778,2.312,24.78,1111122 
DISL,ioos:station:DISL:DISL:1,2016-11-01T07:00:00Z,30.2513,-88.0778,2.366,24.63,1111122 
DISL,ioos:station:DISL:DISL:1,2016-11-01T07:30:00Z,30.2513,-88.0778,2.349,24.07,1111122 
DISL,ioos:station:DISL:DISL:1,2016-11-01T08:00:00Z,30.2513,-88.0778,2.311,23.93,1111122 
DISL,ioos:station:DISL:DISL:1,2016-11-01T08:30:00Z,30.2513,-88.0778,2.282,24.23,1111122 
DISL,ioos:station:DISL:DISL:1,2016-11-01T09:00:00Z,30.2513,-88.0778,2.24,24.04,1111122 
DISL,ioos:station:DISL:DISL:1,2016-11-01T09:30:00Z,30.2513,-88.0778,2.221,22.91,1111122 
DISL,ioos:station:DISL:DISL:1,2016-11-01T10:00:00Z,30.2513,-88.0778,2.19,23.41,1111122 
DISL,ioos:station:DISL:DISL:1,2016-11-01T10:30:00Z,30.2513,-88.0778,2.185,23.76,1111122 
DISL,ioos:station:DISL:DISL:1,2016-11-01T11:00:00Z,30.2513,-88.0778,2.162,23.89,1111122 
DISL,ioos:station:DISL:DISL:1,2016-11-01T11:30:00Z,30.2513,-88.0778,2.153,24.02,1111122 
DISL,ioos:station:DISL:DISL:1,2016-11-01T12:00:00Z,30.2513,-88.0778,2.113,23.86,1111122 
DISL,ioos:station:DISL:DISL:1,2016-11-01T12:30:00Z,30.2513,-88.0778,2.09,24.29,1111122 
DISL,ioos:station:DISL:DISL:1,2016-11-01T13:00:00Z,30.2513,-88.0778,2.091,24.3,1111122 
DISL,ioos:station:DISL:DISL:1,2016-11-01T13:30:00Z,30.2513,-88.0778,2.069,23.85,1111122 
DISL,ioos:station:DISL:DISL:1,2016-11-01T14:00:00Z,30.2513,-88.0778,2.062,24.07,1111122 
DISL,ioos:station:DISL:DISL:1,2016-11-01T14:30:00Z,30.2513,-88.0778,2.064,23.47,1111122 
DISL,ioos:station:DISL:DISL:1,2016-11-01T15:00:00Z,30.2513,-88.0778,2.054,23.39,1111122 
DISL,ioos:station:DISL:DISL:1,2016-11-01T15:30:00Z,30.2513,-88.0778,2.049,23.38,1111122 
DISL,ioos:station:DISL:DISL:1,2016-11-01T16:00:00Z,30.2513,-88.0778,2.062,23.57,1111122 
DISL,ioos:station:DISL:DISL:1,2016-11-01T16:30:00Z,30.2513,-88.0778,2.058,23.24,1111122 
DISL,ioos:station:DISL:DISL:1,2016-11-01T17:00:00Z,30.2513,-88.0778,2.065,23.56,1111122 
DISL,ioos:station:DISL:DISL:1,2016-11-01T17:30:00Z,30.2513,-88.0778,2.08,24.73,1111122 
DISL,ioos:station:DISL:DISL:1,2016-11-01T18:00:00Z,30.2513,-88.0778,2.091,25.11,1111122 
DISL,ioos:station:DISL:DISL:1,2016-11-01T18:30:00Z,30.2513,-88.0778,2.103,24.86,1111122 
DISL,ioos:station:DISL:DISL:1,2016-11-01T19:00:00Z,30.2513,-88.0778,2.109,24.55,1111122 
DISL,ioos:station:DISL:DISL:1,2016-11-01T19:30:00Z,30.2513,-88.0778,2.115,24.69,1111122 
DISL,ioos:station:DISL:DISL:1,2016-11-01T20:00:00Z,30.2513,-88.0778,2.145,24.52,1111122 
DISL,ioos:station:DISL:DISL:1,2016-11-01T20:30:00Z,30.2513,-88.0778,2.165,24.51,1111122 
DISL,ioos:station:DISL:DISL:1,2016-11-01T21:00:00Z,30.2513,-88.0778,2.187,24.73,1111122 
DISL,ioos:station:DISL:DISL:1,2016-11-01T21:30:00Z,30.2513,-88.0778,2.213,24.88,1111122 
DISL,ioos:station:DISL:DISL:1,2016-11-01T22:00:00Z,30.2513,-88.0778,2.225,25.12,1111122 
DISL,ioos:station:DISL:DISL:1,2016-11-01T22:30:00Z,30.2513,-88.0778,2.248,28.0,1111122 
DISL,ioos:station:DISL:DISL:1,2016-11-01T23:00:00Z,30.2513,-88.0778,2.274,28.53,1111122 
DISL,ioos:station:DISL:DISL:1,2016-11-01T23:30:00Z,30.2513,-88.0778,2.297,28.2,1111122 
DISL,ioos:station:DISL:DISL:1,2016-11-02T00:00:00Z,30.2513,-88.0778,2.316,28.65,1111122 
DISL,ioos:station:DISL:DISL:1,2016-11-02T00:30:00Z,30.2513,-88.0778,2.351,28.48,1111122 
DISL,ioos:station:DISL:DISL:1,2016-11-02T01:00:00Z,30.2513,-88.0778,2.387,28.09,1111122 
DISL,ioos:station:DISL:DISL:1,2016-11-02T01:30:00Z,30.2513,-88.0778,2.406,28.83,1111122 
DISL,ioos:station:DISL:DISL:1,2016-11-02T02:00:00Z,30.2513,-88.0778,2.439,28.16,1111122 
DISL,ioos:station:DISL:DISL:1,2016-11-02T02:30:00Z,30.2513,-88.0778,2.467,27.93,1111122 
DISL,ioos:station:DISL:DISL:1,2016-11-02T03:00:00Z,30.2513,-88.0778,2.474,28.56,1111122 
DISL,ioos:station:DISL:DISL:1,2016-11-02T03:30:00Z,30.2513,-88.0778,2.493,28.22,1111122 
DISL,ioos:station:DISL:DISL:1,2016-11-02T04:00:00Z,30.2513,-88.0778,2.495,28.11,1111122 
DISL,ioos:station:DISL:DISL:1,2016-11-02T04:30:00Z,30.2513,-88.0778,2.499,27.65,1111122 
DISL,ioos:station:DISL:DISL:1,2016-11-02T05:30:00Z,30.2513,-88.0778,2.49,27.6,1111122 
DISL,ioos:station:DISL:DISL:1,2016-11-02T06:00:00Z,30.2513,-88.0778,2.487,27.54,1111122 
DISL,ioos:station:DISL:DISL:1,2016-11-02T06:30:00Z,30.2513,-88.0778,2.475,27.9,1111122 
DISL,ioos:station:DISL:DISL:1,2016-11-02T07:00:00Z,30.2513,-88.0778,2.45,27.58,1111122 
DISL,ioos:station:DISL:DISL:1,2016-11-02T07:30:00Z,30.2513,-88.0778,2.431,27.91,1111122 
DISL,ioos:station:DISL:DISL:1,2016-11-02T08:00:00Z,30.2513,-88.0778,2.411,28.19,1111122 
DISL,ioos:station:DISL:DISL:1,2016-11-02T08:30:00Z,30.2513,-88.0778,2.379,27.79,1111122 
DISL,ioos:station:DISL:DISL:1,2016-11-02T09:00:00Z,30.2513,-88.0778,2.353,27.97,1111122 
DISL,ioos:station:DISL:DISL:1,2016-11-02T09:30:00Z,30.2513,-88.0778,2.337,27.83,1111122 
DISL,ioos:station:DISL:DISL:1,2016-11-02T10:00:00Z,30.2513,-88.0778,2.296,27.8,1111122 
DISL,ioos:station:DISL:DISL:1,2016-11-02T10:30:00Z,30.2513,-88.0778,2.266,27.86,1111122 
DISL,ioos:station:DISL:DISL:1,2016-11-02T11:00:00Z,30.2513,-88.0778,2.248,27.4,1111122 
DISL,ioos:station:DISL:DISL:1,2016-11-02T11:30:00Z,30.2513,-88.0778,2.214,27.16,1111122 
DISL,ioos:station:DISL:DISL:1,2016-11-02T12:00:00Z,30.2513,-88.0778,2.2,26.14,1111122 
DISL,ioos:station:DISL:DISL:1,2016-11-02T12:30:00Z,30.2513,-88.0778,2.186,25.38,1111122 
DISL,ioos:station:DISL:DISL:1,2016-11-02T13:00:00Z,30.2513,-88.0778,2.162,24.82,1111122 
DISL,ioos:station:DISL:DISL:1,2016-11-02T13:30:00Z,30.2513,-88.0778,2.145,24.13,1111122 
DISL,ioos:station:DISL:DISL:1,2016-11-02T14:00:00Z,30.2513,-88.0778,2.134,24.77,1111122 
DISL,ioos:station:DISL:DISL:1,2016-11-02T14:30:00Z,30.2513,-88.0778,2.136,24.3,1111122 
DISL,ioos:station:DISL:DISL:1,2016-11-02T15:00:00Z,30.2513,-88.0778,2.108,24.04,1111122 
DISL,ioos:station:DISL:DISL:1,2016-11-02T15:30:00Z,30.2513,-88.0778,2.118,24.85,1111122 
DISL,ioos:station:DISL:DISL:1,2016-11-02T16:00:00Z,30.2513,-88.0778,2.112,25.91,1111122 
DISL,ioos:station:DISL:DISL:1,2016-11-02T16:30:00Z,30.2513,-88.0778,2.101,27.19,1111122 
DISL,ioos:station:DISL:DISL:1,2016-11-02T17:00:00Z,30.2513,-88.0778,2.096,27.81,1111122 
DISL,ioos:station:DISL:DISL:1,2016-11-02T17:30:00Z,30.2513,-88.0778,2.1,28.08,1111122 
DISL,ioos:station:DISL:DISL:1,2016-11-02T18:00:00Z,30.2513,-88.0778,2.095,27.58,1111122 
DISL,ioos:station:DISL:DISL:1,2016-11-02T18:30:00Z,30.2513,-88.0778,2.126,27.49,1111122 
DISL,ioos:station:DISL:DISL:1,2016-11-02T19:00:00Z,30.2513,-88.0778,2.126,27.22,1111122 
DISL,ioos:station:DISL:DISL:1,2016-11-02T19:30:00Z,30.2513,-88.0778,2.127,27.19,1111122 
DISL,ioos:station:DISL:DISL:1,2016-11-02T20:00:00Z,30.2513,-88.0778,2.152,27.32,1111122 
DISL,ioos:station:DISL:DISL:1,2016-11-02T20:30:00Z,30.2513,-88.0778,2.162,27.23,1111122 
DISL,ioos:station:DISL:DISL:1,2016-11-02T21:00:00Z,30.2513,-88.0778,2.195,27.13,1111122 
DISL,ioos:station:DISL:DISL:1,2016-11-02T21:30:00Z,30.2513,-88.0778,2.207,27.44,1111122 
DISL,ioos:station:DISL:DISL:1,2016-11-02T22:00:00Z,30.2513,-88.0778,2.219,27.63,1111122 
DISL,ioos:station:DISL:DISL:1,2016-11-02T22:30:00Z,30.2513,-88.0778,2.24,26.72,1111122 
DISL,ioos:station:DISL:DISL:1,2016-11-02T23:00:00Z,30.2513,-88.0778,2.259,26.8,1111122 
DISL,ioos:station:DISL:DISL:1,2016-11-02T23:30:00Z,30.2513,-88.0778,2.278,26.66,1111122 
DISL,ioos:station:DISL:DISL:1,2016-11-03T00:00:00Z,30.2513,-88.0778,2.297,27.39,1111122 
DISL,ioos:station:DISL:DISL:1,2016-11-03T00:30:00Z,30.2513,-88.0778,2.321,29.07,1111122 
DISL,ioos:station:DISL:DISL:1,2016-11-03T01:00:00Z,30.2513,-88.0778,2.357,29.69,1111122 
DISL,ioos:station:DISL:DISL:1,2016-11-03T01:30:00Z,30.2513,-88.0778,2.37,30.47,1111122 
DISL,ioos:station:DISL:DISL:1,2016-11-03T02:00:00Z,30.2513,-88.0778,2.402,30.21,1111122 
DISL,ioos:station:DISL:DISL:1,2016-11-03T02:30:00Z,30.2513,-88.0778,2.423,30.19,1111122 
DISL,ioos:station:DISL:DISL:1,2016-11-03T03:00:00Z,30.2513,-88.0778,2.409,29.91,1111122 
DISL,ioos:station:DISL:DISL:1,2016-11-03T03:30:00Z,30.2513,-88.0778,2.451,29.05,1111122 
DISL,ioos:station:DISL:DISL:1,2016-11-03T04:00:00Z,30.2513,-88.0778,2.444,27.43,1111122 
DISL,ioos:station:DISL:DISL:1,2016-11-03T04:30:00Z,30.2513,-88.0778,2.461,26.76,1111122 
DISL,ioos:station:DISL:DISL:1,2016-11-03T05:30:00Z,30.2513,-88.0778,2.453,26.08,1111122 
DISL,ioos:station:DISL:DISL:1,2016-11-03T06:00:00Z,30.2513,-88.0778,2.439,26.15,1111122 
DISL,ioos:station:DISL:DISL:1,2016-11-03T06:30:00Z,30.2513,-88.0778,2.45,25.89,1111122 
DISL,ioos:station:DISL:DISL:1,2016-11-03T07:00:00Z,30.2513,-88.0778,2.44,27.35,1111122 
DISL,ioos:station:DISL:DISL:1,2016-11-03T07:30:00Z,30.2513,-88.0778,2.423,26.94,1111122 
DISL,ioos:station:DISL:DISL:1,2016-11-03T08:00:00Z,30.2513,-88.0778,2.381,27.2,1111122 
DISL,ioos:station:DISL:DISL:1,2016-11-03T08:30:00Z,30.2513,-88.0778,2.367,27.28,1111122 
DISL,ioos:station:DISL:DISL:1,2016-11-03T09:00:00Z,30.2513,-88.0778,2.33,27.27,1111122 
DISL,ioos:station:DISL:DISL:1,2016-11-03T09:30:00Z,30.2513,-88.0778,2.289,26.9,1111122 
DISL,ioos:station:DISL:DISL:1,2016-11-03T10:00:00Z,30.2513,-88.0778,2.263,27.08,1111122 
DISL,ioos:station:DISL:DISL:1,2016-11-03T10:30:00Z,30.2513,-88.0778,2.224,27.1,1111122 
DISL,ioos:station:DISL:DISL:1,2016-11-03T11:00:00Z,30.2513,-88.0778,2.229,26.15,1111122 
DISL,ioos:station:DISL:DISL:1,2016-11-03T11:30:00Z,30.2513,-88.0778,2.206,25.86,1111122 
DISL,ioos:station:DISL:DISL:1,2016-11-03T12:00:00Z,30.2513,-88.0778,2.177,25.03,1111122 
DISL,ioos:station:DISL:DISL:1,2016-11-03T12:30:00Z,30.2513,-88.0778,2.157,24.74,1111122 
DISL,ioos:station:DISL:DISL:1,2016-11-03T13:00:00Z,30.2513,-88.0778,2.129,25.63,1111122 
DISL,ioos:station:DISL:DISL:1,2016-11-03T13:30:00Z,30.2513,-88.0778,2.113,25.13,1111122 
DISL,ioos:station:DISL:DISL:1,2016-11-03T14:00:00Z,30.2513,-88.0778,2.081,24.67,1111122 
DISL,ioos:station:DISL:DISL:1,2016-11-03T14:30:00Z,30.2513,-88.0778,2.089,25.41,1111122 
DISL,ioos:station:DISL:DISL:1,2016-11-03T15:00:00Z,30.2513,-88.0778,2.062,24.96,1111122 
DISL,ioos:station:DISL:DISL:1,2016-11-03T15:30:00Z,30.2513,-88.0778,2.051,25.26,1111122 
DISL,ioos:station:DISL:DISL:1,2016-11-03T16:00:00Z,30.2513,-88.0778,2.04,24.74,1111122 
DISL,ioos:station:DISL:DISL:1,2016-11-03T16:30:00Z,30.2513,-88.0778,2.053,24.57,1111122 
DISL,ioos:station:DISL:DISL:1,2016-11-03T17:00:00Z,30.2513,-88.0778,2.058,26.09,1111122 
DISL,ioos:station:DISL:DISL:1,2016-11-03T17:30:00Z,30.2513,-88.0778,2.063,26.72,1111122 
DISL,ioos:station:DISL:DISL:1,2016-11-03T18:00:00Z,30.2513,-88.0778,2.058,26.75,1111122 
DISL,ioos:station:DISL:DISL:1,2016-11-03T18:30:00Z,30.2513,-88.0778,2.057,27.35,1111122 
DISL,ioos:station:DISL:DISL:1,2016-11-03T19:00:00Z,30.2513,-88.0778,2.069,26.88,1111122 
DISL,ioos:station:DISL:DISL:1,2016-11-03T19:30:00Z,30.2513,-88.0778,2.101,26.43,1111122 
DISL,ioos:station:DISL:DISL:1,2016-11-03T20:00:00Z,30.2513,-88.0778,2.112,26.16,1111122 
DISL,ioos:station:DISL:DISL:1,2016-11-03T20:30:00Z,30.2513,-88.0778,2.125,26.66,1111122 
DISL,ioos:station:DISL:DISL:1,2016-11-03T21:00:00Z,30.2513,-88.0778,2.133,26.35,1111122 
DISL,ioos:station:DISL:DISL:1,2016-11-03T21:30:00Z,30.2513,-88.0778,2.168,25.51,1111122 
DISL,ioos:station:DISL:DISL:1,2016-11-03T22:00:00Z,30.2513,-88.0778,2.183,26.02,1111122 
DISL,ioos:station:DISL:DISL:1,2016-11-03T22:30:00Z,30.2513,-88.0778,2.144,25.73,1111122 
DISL,ioos:station:DISL:DISL:1,2016-11-03T23:00:00Z,30.2513,-88.0778,2.227,25.77,1111122 
DISL,ioos:station:DISL:DISL:1,2016-11-03T23:30:00Z,30.2513,-88.0778,2.265,24.13,1111122 
DISL,ioos:station:DISL:DISL:1,2016-11-04T00:00:00Z,30.2513,-88.0778,2.277,25.01,1111122 
DISL,ioos:station:DISL:DISL:1,2016-11-04T00:30:00Z,30.2513,-88.0778,2.319,25.49,1111122 
DISL,ioos:station:DISL:DISL:1,2016-11-04T01:00:00Z,30.2513,-88.0778,2.337,26.52,1111122 
DISL,ioos:station:DISL:DISL:1,2016-11-04T01:30:00Z,30.2513,-88.0778,2.367,28.21,1111122 
DISL,ioos:station:DISL:DISL:1,2016-11-04T02:00:00Z,30.2513,-88.0778,2.387,28.44,1111122 
DISL,ioos:station:DISL:DISL:1,2016-11-04T02:30:00Z,30.2513,-88.0778,2.417,28.19,1111122 
DISL,ioos:station:DISL:DISL:1,2016-11-04T03:00:00Z,30.2513,-88.0778,2.432,27.6,1111122 
DISL,ioos:station:DISL:DISL:1,2016-11-04T03:30:00Z,30.2513,-88.0778,2.447,27.58,1111122 
DISL,ioos:station:DISL:DISL:1,2016-11-04T04:00:00Z,30.2513,-88.0778,2.45,27.66,1111122 
DISL,ioos:station:DISL:DISL:1,2016-11-04T04:30:00Z,30.2513,-88.0778,2.468,27.05,1111122 
DISL,ioos:station:DISL:DISL:1,2016-11-04T05:00:00Z,30.2513,-88.0778,2.458,26.86,1111122 
DISL,ioos:station:DISL:DISL:1,2016-11-04T05:30:00Z,30.2513,-88.0778,2.467,25.73,1111122 
DISL,ioos:station:DISL:DISL:1,2016-11-04T06:00:00Z,30.2513,-88.0778,2.467,25.32,1111122 
DISL,ioos:station:DISL:DISL:1,2016-11-04T06:30:00Z,30.2513,-88.0778,2.453,25.0,1111122 
DISL,ioos:station:DISL:DISL:1,2016-11-04T07:00:00Z,30.2513,-88.0778,2.427,24.87,1111122 
DISL,ioos:station:DISL:DISL:1,2016-11-04T07:30:00Z,30.2513,-88.0778,2.352,25.38,1111122 
DISL,ioos:station:DISL:DISL:1,2016-11-04T08:00:00Z,30.2513,-88.0778,2.394,25.24,1111122 
DISL,ioos:station:DISL:DISL:1,2016-11-04T08:30:00Z,30.2513,-88.0778,2.371,25.39,1111122 
DISL,ioos:station:DISL:DISL:1,2016-11-04T09:00:00Z,30.2513,-88.0778,2.331,25.2,1111122 
DISL,ioos:station:DISL:DISL:1,2016-11-04T09:30:00Z,30.2513,-88.0778,2.313,25.27,1111122 
DISL,ioos:station:DISL:DISL:1,2016-11-04T10:00:00Z,30.2513,-88.0778,2.274,25.65,1111122 
DISL,ioos:station:DISL:DISL:1,2016-11-04T10:30:00Z,30.2513,-88.0778,2.257,25.08,1111122 
DISL,ioos:station:DISL:DISL:1,2016-11-04T11:00:00Z,30.2513,-88.0778,2.207,24.9,1111122 
DISL,ioos:station:DISL:DISL:1,2016-11-04T11:30:00Z,30.2513,-88.0778,2.168,25.46,1111122 
DISL,ioos:station:DISL:DISL:1,2016-11-04T12:00:00Z,30.2513,-88.0778,2.161,25.85,1111122 
DISL,ioos:station:DISL:DISL:1,2016-11-04T12:30:00Z,30.2513,-88.0778,2.147,25.17,1111122 
DISL,ioos:station:DISL:DISL:1,2016-11-04T13:00:00Z,30.2513,-88.0778,2.119,25.55,1111122 
DISL,ioos:station:DISL:DISL:1,2016-11-04T13:30:00Z,30.2513,-88.0778,2.098,25.04,1111122 
DISL,ioos:station:DISL:DISL:1,2016-11-04T14:00:00Z,30.2513,-88.0778,2.091,26.12,1111122 
DISL,ioos:station:DISL:DISL:1,2016-11-04T14:30:00Z,30.2513,-88.0778,2.059,26.09,1111122 
DISL,ioos:station:DISL:DISL:1,2016-11-04T15:00:00Z,30.2513,-88.0778,2.037,26.0,1111122 
DISL,ioos:station:DISL:DISL:1,2016-11-04T15:30:00Z,30.2513,-88.0778,2.025,25.88,1111122 
DISL,ioos:station:DISL:DISL:1,2016-11-04T16:00:00Z,30.2513,-88.0778,2.01,25.56,1111122 
DISL,ioos:station:DISL:DISL:1,2016-11-04T16:30:00Z,30.2513,-88.0778,1.996,25.33,1111122 
DISL,ioos:station:DISL:DISL:1,2016-11-04T17:00:00Z,30.2513,-88.0778,1.988,24.83,1111122 
DISL,ioos:station:DISL:DISL:1,2016-11-04T17:30:00Z,30.2513,-88.0778,1.995,24.65,1111122 
DISL,ioos:station:DISL:DISL:1,2016-11-04T18:00:00Z,30.2513,-88.0778,2.002,24.68,1111122 
DISL,ioos:station:DISL:DISL:1,2016-11-04T18:30:00Z,30.2513,-88.0778,1.942,24.97,1111122 
DISL,ioos:station:DISL:DISL:1,2016-11-04T19:00:00Z,30.2513,-88.0778,2.047,25.08,1111122 
DISL,ioos:station:DISL:DISL:1,2016-11-04T19:30:00Z,30.2513,-88.0778,2.057,26.34,1111122 
DISL,ioos:station:DISL:DISL:1,2016-11-04T20:00:00Z,30.2513,-88.0778,2.055,26.02,1111122 
DISL,ioos:station:DISL:DISL:1,2016-11-04T20:30:00Z,30.2513,-88.0778,2.072,25.19,1111122 
DISL,ioos:station:DISL:DISL:1,2016-11-04T21:00:00Z,30.2513,-88.0778,2.08,25.55,1111122 
DISL,ioos:station:DISL:DISL:1,2016-11-04T21:30:00Z,30.2513,-88.0778,2.098,25.74,1111122 
DISL,ioos:station:DISL:DISL:1,2016-11-04T22:00:00Z,30.2513,-88.0778,2.128,25.81,1111122 
DISL,ioos:station:DISL:DISL:1,2016-11-04T22:30:00Z,30.2513,-88.0778,2.156,25.85,1111122 
DISL,ioos:station:DISL:DISL:1,2016-11-04T23:00:00Z,30.2513,-88.0778,2.152,25.89,1111122 
DISL,ioos:station:DISL:DISL:1,2016-11-04T23:30:00Z,30.2513,-88.0778,2.219,25.97,1111122 
DISL,ioos:station:DISL:DISL:1,2016-11-05T00:00:00Z,30.2513,-88.0778,2.243,26.04,1111122 
DISL,ioos:station:DISL:DISL:1,2016-11-05T00:30:00Z,30.2513,-88.0778,2.272,26.01,1111122 
DISL,ioos:station:DISL:DISL:1,2016-11-05T01:00:00Z,30.2513,-88.0778,2.266,25.97,1111122 
DISL,ioos:station:DISL:DISL:1,2016-11-05T01:30:00Z,30.2513,-88.0778,2.269,26.36,1111122 
DISL,ioos:station:DISL:DISL:1,2016-11-05T02:00:00Z,30.2513,-88.0778,2.318,28.26,1111122 
DISL,ioos:station:DISL:DISL:1,2016-11-05T02:30:00Z,30.2513,-88.0778,2.347,27.1,1111122 
DISL,ioos:station:DISL:DISL:1,2016-11-05T03:00:00Z,30.2513,-88.0778,2.383,26.17,1111122 
DISL,ioos:station:DISL:DISL:1,2016-11-05T03:30:00Z,30.2513,-88.0778,2.374,26.02,1111122 
DISL,ioos:station:DISL:DISL:1,2016-11-05T04:00:00Z,30.2513,-88.0778,2.41,25.98,1111122 
DISL,ioos:station:DISL:DISL:1,2016-11-05T04:30:00Z,30.2513,-88.0778,2.382,25.66,1111122 
DISL,ioos:station:DISL:DISL:1,2016-11-05T05:30:00Z,30.2513,-88.0778,2.333,25.93,1111122 
DISL,ioos:station:DISL:DISL:1,2016-11-05T06:00:00Z,30.2513,-88.0778,2.364,25.95,1111122 
DISL,ioos:station:DISL:DISL:1,2016-11-05T06:30:00Z,30.2513,-88.0778,2.399,25.94,1111122 
DISL,ioos:station:DISL:DISL:1,2016-11-05T07:00:00Z,30.2513,-88.0778,2.358,25.24,1111122 
DISL,ioos:station:DISL:DISL:1,2016-11-05T07:30:00Z,30.2513,-88.0778,2.352,25.44,1111122 
DISL,ioos:station:DISL:DISL:1,2016-11-05T08:00:00Z,30.2513,-88.0778,2.338,25.5,1111122 
DISL,ioos:station:DISL:DISL:1,2016-11-05T08:30:00Z,30.2513,-88.0778,2.371,25.53,1111122 
DISL,ioos:station:DISL:DISL:1,2016-11-05T09:00:00Z,30.2513,-88.0778,2.335,25.73,1111122 
DISL,ioos:station:DISL:DISL:1,2016-11-05T09:30:00Z,30.2513,-88.0778,2.191,25.79,1111122 
DISL,ioos:station:DISL:DISL:1,2016-11-05T10:00:00Z,30.2513,-88.0778,2.297,25.68,1111122 
DISL,ioos:station:DISL:DISL:1,2016-11-05T10:30:00Z,30.2513,-88.0778,2.299,25.43,1111122 
DISL,ioos:station:DISL:DISL:1,2016-11-05T11:00:00Z,30.2513,-88.0778,2.23,25.45,1111122 
DISL,ioos:station:DISL:DISL:1,2016-11-05T11:30:00Z,30.2513,-88.0778,2.191,25.5,1111122 
DISL,ioos:station:DISL:DISL:1,2016-11-05T12:00:00Z,30.2513,-88.0778,2.162,25.54,1111122 
DISL,ioos:station:DISL:DISL:1,2016-11-05T12:30:00Z,30.2513,-88.0778,2.168,25.64,1111122 
DISL,ioos:station:DISL:DISL:1,2016-11-05T13:00:00Z,30.2513,-88.0778,2.213,25.92,1111122 
DISL,ioos:station:DISL:DISL:1,2016-11-05T13:30:00Z,30.2513,-88.0778,2.146,26.0,1111122 
DISL,ioos:station:DISL:DISL:1,2016-11-05T14:00:00Z,30.2513,-88.0778,2.119,26.03,1111122 
DISL,ioos:station:DISL:DISL:1,2016-11-05T14:30:00Z,30.2513,-88.0778,2.109,26.06,1111122 
DISL,ioos:station:DISL:DISL:1,2016-11-05T15:00:00Z,30.2513,-88.0778,2.016,26.07,1111122 
DISL,ioos:station:DISL:DISL:1,2016-11-05T15:30:00Z,30.2513,-88.0778,2.084,26.05,1111122 
DISL,ioos:station:DISL:DISL:1,2016-11-05T16:00:00Z,30.2513,-88.0778,2.085,25.94,1111122 
DISL,ioos:station:DISL:DISL:1,2016-11-05T16:30:00Z,30.2513,-88.0778,2.053,25.95,1111122 
DISL,ioos:station:DISL:DISL:1,2016-11-05T17:00:00Z,30.2513,-88.0778,2.051,25.86,1111122 
DISL,ioos:station:DISL:DISL:1,2016-11-05T17:30:00Z,30.2513,-88.0778,2.032,25.82,1111122 
DISL,ioos:station:DISL:DISL:1,2016-11-05T18:00:00Z,30.2513,-88.0778,2.056,25.82,1111122 
DISL,ioos:station:DISL:DISL:1,2016-11-05T18:30:00Z,30.2513,-88.0778,2.048,25.81,1111122 
DISL,ioos:station:DISL:DISL:1,2016-11-05T19:00:00Z,30.2513,-88.0778,2.048,25.87,1111122 
DISL,ioos:station:DISL:DISL:1,2016-11-05T19:30:00Z,30.2513,-88.0778,2.056,25.89,1111122 
DISL,ioos:station:DISL:DISL:1,2016-11-05T20:00:00Z,30.2513,-88.0778,2.065,25.93,1111122 
DISL,ioos:station:DISL:DISL:1,2016-11-05T20:30:00Z,30.2513,-88.0778,2.073,25.96,1111122 
DISL,ioos:station:DISL:DISL:1,2016-11-05T21:00:00Z,30.2513,-88.0778,2.086,26.02,1111122 
DISL,ioos:station:DISL:DISL:1,2016-11-05T21:30:00Z,30.2513,-88.0778,2.105,26.05,1111122 
DISL,ioos:station:DISL:DISL:1,2016-11-05T22:00:00Z,30.2513,-88.0778,2.115,26.39,1111122 
DISL,ioos:station:DISL:DISL:1,2016-11-05T22:30:00Z,30.2513,-88.0778,2.133,26.64,1111122 
DISL,ioos:station:DISL:DISL:1,2016-11-05T23:00:00Z,30.2513,-88.0778,2.151,26.87,1111122 
DISL,ioos:station:DISL:DISL:1,2016-11-05T23:30:00Z,30.2513,-88.0778,2.167,26.85,1111122 
DISL,ioos:station:DISL:DISL:1,2016-11-06T00:00:00Z,30.2513,-88.0778,2.179,26.84,1111122 
DISL,ioos:station:DISL:DISL:1,2016-11-06T00:30:00Z,30.2513,-88.0778,2.213,26.73,1111122 
DISL,ioos:station:DISL:DISL:1,2016-11-06T01:00:00Z,30.2513,-88.0778,2.232,26.42,1111122 
DISL,ioos:station:DISL:DISL:1,2016-11-06T01:30:00Z,30.2513,-88.0778,2.256,29.51,1111122 
DISL,ioos:station:DISL:DISL:1,2016-11-06T02:00:00Z,30.2513,-88.0778,2.228,30.29,1111122 
DISL,ioos:station:DISL:DISL:1,2016-11-06T02:30:00Z,30.2513,-88.0778,2.309,30.41,1111122 
DISL,ioos:station:DISL:DISL:1,2016-11-06T03:00:00Z,30.2513,-88.0778,2.349,30.46,1111122 
DISL,ioos:station:DISL:DISL:1,2016-11-06T03:30:00Z,30.2513,-88.0778,2.349,30.46,1111122 
DISL,ioos:station:DISL:DISL:1,2016-11-06T04:00:00Z,30.2513,-88.0778,2.35,30.48,1111122 
DISL,ioos:station:DISL:DISL:1,2016-11-06T04:30:00Z,30.2513,-88.0778,2.366,30.09,1111122 
DISL,ioos:station:DISL:DISL:1,2016-11-06T05:30:00Z,30.2513,-88.0778,2.407,30.28,1111122 
DISL,ioos:station:DISL:DISL:1,2016-11-06T06:00:00Z,30.2513,-88.0778,2.397,30.2,1111122 
DISL,ioos:station:DISL:DISL:1,2016-11-06T06:30:00Z,30.2513,-88.0778,2.409,29.91,1111122 
DISL,ioos:station:DISL:DISL:1,2016-11-06T07:00:00Z,30.2513,-88.0778,2.391,28.96,1111122 
DISL,ioos:station:DISL:DISL:1,2016-11-06T07:30:00Z,30.2513,-88.0778,2.388,28.34,1111122 
DISL,ioos:station:DISL:DISL:1,2016-11-06T08:00:00Z,30.2513,-88.0778,2.393,28.43,1111122 
DISL,ioos:station:DISL:DISL:1,2016-11-06T08:30:00Z,30.2513,-88.0778,2.384,28.71,1111122 
DISL,ioos:station:DISL:DISL:1,2016-11-06T09:00:00Z,30.2513,-88.0778,2.362,28.89,1111122 
DISL,ioos:station:DISL:DISL:1,2016-11-06T09:30:00Z,30.2513,-88.0778,2.34,28.87,1111122 
DISL,ioos:station:DISL:DISL:1,2016-11-06T10:00:00Z,30.2513,-88.0778,2.378,28.78,1111122 
DISL,ioos:station:DISL:DISL:1,2016-11-06T10:30:00Z,30.2513,-88.0778,2.297,28.31,1111122 
DISL,ioos:station:DISL:DISL:1,2016-11-06T11:00:00Z,30.2513,-88.0778,2.284,28.15,1111122 
DISL,ioos:station:DISL:DISL:1,2016-11-06T11:30:00Z,30.2513,-88.0778,2.253,28.1,1111122 
DISL,ioos:station:DISL:DISL:1,2016-11-06T12:00:00Z,30.2513,-88.0778,2.23,28.02,1111122 
DISL,ioos:station:DISL:DISL:1,2016-11-06T12:30:00Z,30.2513,-88.0778,2.158,27.88,1111122 
DISL,ioos:station:DISL:DISL:1,2016-11-06T13:00:00Z,30.2513,-88.0778,2.038,27.74,1111122 
DISL,ioos:station:DISL:DISL:1,2016-11-06T13:30:00Z,30.2513,-88.0778,2.118,27.52,1111122 
DISL,ioos:station:DISL:DISL:1,2016-11-06T14:00:00Z,30.2513,-88.0778,2.11,27.49,1111122 
DISL,ioos:station:DISL:DISL:1,2016-11-06T14:30:00Z,30.2513,-88.0778,2.093,27.55,1111122 
DISL,ioos:station:DISL:DISL:1,2016-11-06T15:00:00Z,30.2513,-88.0778,2.047,27.65,1111122 
DISL,ioos:station:DISL:DISL:1,2016-11-06T15:30:00Z,30.2513,-88.0778,2.044,27.88,1111122 
DISL,ioos:station:DISL:DISL:1,2016-11-06T16:00:00Z,30.2513,-88.0778,2.036,28.08,1111122 
DISL,ioos:station:DISL:DISL:1,2016-11-06T16:30:00Z,30.2513,-88.0778,2.028,28.21,1111122 